Location: Caltech
(34.1382°N, 118.1253°W)
Time: 06:19:33
(UTC-08:00)

UOSAT-12 - Visible Passes

Search period start: 20 December 2014 00:00
Search period end: 30 December 2014 00:00
Orbit: 594 x 663 km, 64.6° (Epoch: 19 December)

Date Brightness Start Highest point End Pass type
(mag) Time Alt. Az. Time Alt. Az. Time Alt. Az.
21 Dec 9.4 06:23:27 10° N 06:26:49 19° NE 06:30:08 10° E visible
23 Dec 9.9 05:25:37 10° NNE 05:27:03 11° NE 05:28:28 10° ENE visible
24 Dec 9.2 05:44:05 10° N 05:47:49 23° NE 05:51:29 10° ESE visible
25 Dec 8.0 06:03:48 10° NNW 06:08:22 50° ENE 06:12:49 10° SE visible
26 Dec 9.8 04:45:45 10° NNE 04:48:05 14° NE 04:50:23 10° ENE visible
26 Dec 7.2 06:24:02 10° NW 06:28:41 68° WSW 06:33:13 10° SSE visible
27 Dec 8.9 05:05:36 14° N 05:08:47 27° NE 05:12:43 10° ESE visible
28 Dec 7.5 05:25:58 19° NNW 05:29:16 62° ENE 05:33:48 10° SE visible
29 Dec 9.6 04:09:03 16° NE 04:09:05 16° NE 04:11:57 10° E visible
29 Dec 7.3 05:46:25 19° NW 05:49:32 54° WSW 05:53:59 10° SSE visible
